Location: ?rugolanupeta
(16.9683°N, 80.8615°E)
Time: 06:13:17
(UTC+00:00)

Daily predictions for brighter satellites

Satellite Brightness Start Highest point End
(mag) Time Altitude Azimuth Time Altitude Azimuth Time Altitude Azimuth
Meteor 1-12 Rocket 4.5 13:28:35 10° N 13:34:12 77° W 13:39:51 10° S
Cosmos 1908 Rocket 4.1 13:31:34 10° NNW 13:35:58 64° W 13:40:22 10° S
Okean 2 3.6 13:34:11 10° S 13:38:10 50° E 13:42:11 10° NNE
Meteor 1-15 Rocket 4.4 13:33:04 10° N 13:38:59 90° WNW 13:44:53 10° S
H-2A R/B 4.0 13:37:08 10° ENE 13:38:59 12° E 13:40:50 10° ESE
DASH 3.2 13:28:20 10° WNW 13:39:44 80° NNE 13:42:48 10° ESE
Iridium 2 3.9 13:36:42 10° N 13:40:21 73° W 13:43:59 10° S
USA 276 2.0 13:40:12 10° SW 13:43:11 83° NW 13:46:10 10° NE
USA 267 4.0 13:41:36 10° ENE 13:46:59 27° SE 13:52:20 10° S
Cosmos 1470 2.8 13:47:35 10° N 13:51:25 57° E 13:55:16 10° SSE
Cosmos 1674 2.6 13:47:41 10° S 13:51:28 86° E 13:55:15 10° N
CZ-4C R/B 2.9 13:48:43 10° N 13:52:04 85° WNW 13:55:29 10° SSW
Cosmos 1378 Rocket 4.1 13:50:33 10° SSE 13:54:38 37° E 13:58:43 10° NNE
Cosmos 2221 Rocket 3.5 13:52:45 10° S 13:57:08 71° E 14:01:34 10° N
HJ-1C 4.1 13:56:17 10° S 13:59:23 50° W 14:02:28 10° NNW
Cosmos 1242 Rocket 2.3 13:56:09 10° N 13:59:30 67° E 14:02:51 10° SSE
Cosmos 2278 Rocket 4.0 13:55:03 10° NW 13:59:54 30° WSW 14:04:45 10° SSW
Cosmos 1674 Rocket 3.7 13:57:29 10° SSE 14:01:38 49° E 14:05:49 10° NNE
Okean-O 3.6 14:00:22 14° SE 14:03:27 30° ENE 14:07:16 10° NNE
Cosmos 1553 Rocket 4.3 13:58:47 10° SSE 14:04:46 48° E 14:10:49 10° NNE
Cosmos 1626 2.7 14:04:36 10° SSW 14:08:11 59° W 14:11:46 10° N
OBJECT-B 0.5 14:08:29 18° SSE 14:10:21 58° ENE 14:13:09 10° N
Okean O Rocket 2.9 14:06:56 10° S 14:11:03 41° W 14:15:11 10° NNW
H-2A R/B 3.7 14:10:00 19° ESE 14:11:13 22° ENE 14:14:11 10° NNE
Hubble Space Telescope 2.3 14:08:13 10° NW 14:11:48 28° NNE 14:14:52 13° ENE
GPS 2-14 Rocket1 3.3 14:11:57 10° W 14:15:56 53° N 14:19:19 14° ENE
Cosmos 1607 4.1 14:10:47 10° S 14:16:50 51° ESE 14:22:50 10° NE
Ariane H10+ 2.9 14:14:45 10° WSW 14:20:35 24° SSW 14:22:10 19° SSE
SJ-6B 3.0 14:20:24 27° SE 14:22:01 44° ENE 14:25:37 10° N
Iridium 4 Rocket 3.8 14:16:50 10° NNE 14:22:33 55° E 14:27:00 15° SSE
Fermi 4.2 14:19:16 10° WNW 14:23:19 54° NNE 14:25:28 25° E
CZ-4 R/B 2.9 14:22:00 10° SSW 14:25:50 36° W 14:29:41 10° NNW
Cosmos 1300 Rocket 4.0 14:23:04 10° NNW 14:27:26 62° W 14:31:47 10° S
KM-V1 2.9 14:26:42 10° WSW 14:29:08 71° SW 14:29:08 71° SW
Cosmos 2297 3.6 14:24:17 10° NNW 14:29:57 72° ENE 14:33:27 24° SSE
GPS 2-17 Rocket1 3.0 14:29:26 10° W 14:33:51 80° NNW 14:36:21 26° ENE
Cosmos 1943 Rocket 2.4 14:28:43 10° NNW 14:34:16 69° WSW 14:38:37 17° S
Intercosmos 25 3.3 14:30:56 10° N 14:34:23 69° E 14:36:49 26° SSE
Cosmos 1437 Rocket 2.8 14:32:04 10° N 14:36:01 58° E 14:37:05 42° SE
Gblst 52 Del rocket 4.4 14:32:29 10° NNW 14:39:01 71° NE 14:41:41 34° SE
Okean 1 Rocket 4.2 14:36:07 10° NNE 14:39:25 26° ENE 14:39:25 26° ENE
Cosmos 1624 Rocket 4.3 14:39:43 33° SE 14:41:27 43° E 14:46:22 10° NNE
Atlas Centaur 2 4.0 14:39:43 10° NW 14:42:44 16° N 14:45:25 10° NE
ARGOS Delta rocket 4.1 14:38:38 10° N 14:43:05 61° WNW 14:47:24 10° SSW
deb Chang Zheng 4 3.7 14:40:50 24° S 14:43:14 66° WSW 14:47:23 10° NNW
Meteor 2-5 Rocket 4.3 14:45:27 33° E 14:45:27 33° E 14:50:20 10° NNE
SWARM A 4.2 14:47:42 78° SE 14:47:52 83° E 14:51:23 10° N
Milstar 3 4.0 14:39:28 10° SW 14:48:04 54° SE 15:04:15 10° ENE
SL-14 R/B 4.1 14:45:25 11° SSW 14:48:56 48° W 14:52:40 10° N
CZ-2C R/B 2.4 14:46:22 10° W 14:49:56 29° SW 14:50:25 28° SSW
Cosmos 1758 4.4 14:48:40 10° NNW 14:52:32 44° W 14:54:50 21° SSW
USA 186 3.2 14:52:25 26° WSW 14:52:35 27° W 14:54:58 10° NW
Spot 2 4.0 14:52:56 56° SSE 14:53:49 80° ENE 14:58:24 10° N
MetOp-A 3.2 14:57:36 75° SSE 14:57:56 90° E 15:02:08 10° NNW
Cosmos 1975 Rocket 3.9 15:00:33 38° NE 15:00:33 38° NE 15:03:40 10° NNE
Delta 7925 Rocket 4.5 14:50:46 10° WNW 14:59:55 76° SSW 15:02:42 43° SE
USA 306 3.3 14:56:40 10° NNW 15:00:19 47° NE 15:00:19 47° NE
Cosmos 2056 Rocket 3.4 14:59:33 36° S 15:01:43 76° ESE 15:07:04 10° NNE
Cosmos 1745 Rocket 4.2 14:59:04 10° NNE 15:04:55 46° E 15:05:13 46° E
Cosmos 1908 4.2 15:01:31 10° NNW 15:05:11 44° W 15:05:59 38° SW
Resurs 1-3 3.6 15:04:51 64° SSW 15:05:25 75° WSW 15:09:48 10° NNW
GOES 2 Rocket 3.5 15:01:04 10° SW 15:05:50 61° SSE 15:05:50 61° SSE
ATLAS 3B CENTAUR R/B 4.2 14:55:12 10° WNW 15:09:58 66° NNE 15:15:45 32° E
Cosmos 1420 Rocket 3.8 15:11:02 74° ESE 15:11:02 74° ESE 15:16:15 10° NNE
Meteosat 1 Rocket2 4.2 15:07:34 10° NW 15:11:18 29° NNE 15:11:18 29° NNE
Landsat 7 3.7 15:14:03 74° SW 15:14:20 77° WSW 15:19:03 10° NNW
H-2A R/B 3.8 15:10:47 10° NNW 15:14:46 33° WNW 15:18:47 10° SW
SPOT 1/Viking Rocket 4.0 15:18:47 45° NE 15:18:47 45° NE 15:22:52 10° N
Cosmos 1238 Rocket 4.5 15:17:26 10° NNW 15:23:23 57° W 15:26:16 32° SSW
Resurs 01 Rocket 2.5 15:26:34 44° N 15:26:34 44° N 15:29:38 10° N
IRS-1A Rocket 4.3 15:26:16 71° ENE 15:26:16 71° ENE 15:32:05 10° N
USA 307 4.0 15:22:27 10° NNW 15:25:11 40° NNW 15:25:11 40° NNW
Meteor 1-24 Rocket 3.8 15:29:01 61° NNE 15:29:01 61° NNE 15:33:22 10° N
Cosmos 2315 Rocket 3.9 15:27:15 69° S 15:28:05 87° E 15:34:27 10° N
Ariane Rocket 3.8 15:29:49 40° NNE 15:29:49 40° NNE 15:33:19 10° N
USA 267 4.1 15:23:37 10° NNE 15:29:52 49° NW 15:36:06 10° WSW
Cosmos 2369 Rocket 2.3 15:24:42 10° NNW 15:30:15 64° WSW 15:30:37 62° SW
Delta 202 3.8 15:28:22 10° WSW 15:33:31 80° SW 15:33:31 80° SW
Cosmos 1656 Rocket 3.8 15:32:08 10° NNW 15:37:17 68° W 15:37:17 68° W
Cosmos 1953 4.2 15:34:44 10° NNW 15:37:16 29° WNW 15:37:16 29° WNW
Mugunghwa Rocket 4.5 15:32:22 10° WSW 15:40:31 70° SSE 15:40:42 70° SE
Meteor 2-10 Rocket 4.2 15:36:01 10° N 15:39:27 45° N 15:39:27 45° N
Hubble Space Telescope 3.3 15:48:58 10° WNW 15:50:07 18° WNW 15:50:07 18° WNW
Cosmos 1709 Rocket 4.4 15:48:04 10° N 15:52:47 54° NNE 15:52:47 54° NNE
NOSS 3-4 (A) 4.1 15:59:25 10° NNW 16:06:31 73° NNE 16:06:31 73° NNE
NOSS 3-4 (C) 4.1 15:59:31 10° NNW 16:06:32 72° NNE 16:06:32 72° NNE
Aurora 2 Rocket 4.4 16:03:51 10° WSW 16:10:22 50° WSW 16:10:22 50° WSW
BREEZE-M DEB (TANK) 4.3 16:09:59 10° NW 16:13:23 54° W 16:13:23 54° W
ATLAS 3B CENTAUR R/B 4.2 16:59:56 10° WNW 17:08:30 44° W 17:08:30 44° W
CENTAUR R/B 4.4 20:42:12 20° N 20:42:12 20° N 20:44:14 10° N
SL-16 R/B 4.0 20:41:53 32° N 20:41:53 32° N 20:45:12 10° N
Cosmos 2219 Rocket 4.1 20:43:17 10° N 20:46:51 26° NE 20:46:51 26° NE
Cosmos 2333 Rocket 4.0 21:02:56 10° NNW 21:05:16 25° N 21:05:16 25° N
CZ-2C R/B 3.8 21:25:31 10° NNE 21:28:38 31° ENE 21:28:38 31° ENE
Cosmos 2227 Rocket 2.8 21:32:28 53° N 21:32:28 53° N 21:36:44 10° NNE
USA 215 3.9 21:38:21 10° NNE 21:44:21 40° NW 21:44:37 40° NW
Cosmos 44 Rocket 3.8 21:48:27 59° NE 21:48:27 59° NE 21:52:26 10° NNE
Meteor 1-20 Rocket 4.4 21:51:07 59° NNW 21:51:07 59° NNW 21:55:47 10° N
ATLAS CENTAUR R/B 4.2 21:50:07 10° SE 21:51:37 12° ESE 21:53:15 10° E
Cosmos 2219 3.5 21:53:23 54° NW 21:53:23 54° NW 21:58:11 10° N
Meteor 1-27 Rocket 3.9 21:47:38 10° N 21:53:09 65° E 21:54:35 47° SE
MOS 1-B Rocket 4.1 21:51:17 48° SSE 21:53:13 86° ENE 22:00:18 10° NNW
FENGYUN 3A 3.6 21:48:00 10° N 21:53:01 73° NNW 21:53:01 73° NNW
Cosmos 2263 Rocket 4.0 21:51:31 16° SE 21:54:25 25° ESE 21:58:52 10° NE
CZ-3B Rocket 4.0 21:31:16 10° W 21:58:46 26° SSE 22:00:54 10° SE
COSMOS 2428 2.6 21:50:36 10° NNW 21:56:19 88° WSW 21:56:39 80° S
Cosmos 1725 Rocket 4.4 21:51:27 10° NNW 21:56:13 45° WNW 21:56:13 45° WNW
ARIANE 5 R/B 2.7 21:55:57 10° NNE 22:00:58 67° ESE 22:01:43 58° SSE
Cosmos 2297 Rocket 3.8 22:03:08 21° NW 22:03:08 21° NW 22:06:11 10° NNW
Cosmos 2233 Rocket 3.8 21:58:53 10° N 22:05:00 75° W 22:06:12 58° SSW
ALOS 2.5 22:03:46 10° N 22:07:41 55° NW 22:07:41 55° NW
Cosmos 1544 4.2 22:08:59 39° E 22:08:59 39° E 22:12:05 10° NNE
Cosmos 1805 Rocket 3.6 22:09:28 72° ESE 22:09:41 74° E 22:14:05 10° N
Cosmos 2237 Rocket 3.7 22:05:20 10° N 22:10:26 35° ENE 22:15:29 10° SE
Cosmos 1515 Rocket 3.5 22:07:41 10° N 22:12:02 81° E 22:12:12 78° ESE
Cosmos 1743 Rocket 3.9 22:12:48 54° NW 22:12:48 54° NW 22:16:27 10° N
Helios 1B rocket 4.1 22:11:34 10° NNW 22:13:29 22° NNW 22:13:29 22° NNW
Meteor 1-29 3.7 22:13:56 10° NNE 22:16:34 50° NE 22:16:34 50° NE
Cosmos 1937 Rocket 4.1 22:18:46 10° NNW 22:22:36 37° WNW 22:22:36 37° WNW
Sich 1 2.9 22:23:32 59° S 22:24:21 90° W 22:28:40 10° N
SL-24 R/B - RUBIN 2 3.8 22:25:02 53° WSW 22:26:03 67° WNW 22:30:49 10° NNE
Meteor 1-5 Rocket 4.2 22:23:29 27° S 22:26:31 77° E 22:31:49 10° N
Cosmos 2219 Rocket 4.1 22:27:29 10° NW 22:28:27 14° WNW 22:28:27 14° WNW
CZ-2D R/B 3.4 22:27:47 10° N 22:31:58 70° WNW 22:32:52 52° SW
Intelsat 5-1 Rocket 2.6 22:35:11 23° N 22:35:11 23° N 22:37:04 10° NE
Cosmos 1315 Rocket 2.7 22:35:05 51° SSW 22:36:00 75° W 22:40:00 10° N
Cosmos 1666 4.5 22:46:54 18° WNW 22:46:54 18° WNW 22:48:35 10° NW
Cosmos 1484 Rocket 2.8 22:44:54 10° N 22:48:43 58° WNW 22:50:08 34° SW
BREEZE-M DEB (TANK) 2.7 22:55:53 35° SSW 22:55:53 35° SSW 22:58:48 10° SSE
Cosmos 1891 Rocket 4.4 22:51:39 10° NNW 22:57:43 67° W 23:03:55 10° S
ATLAS 3B R/B 3.2 22:53:01 10° S 22:59:08 52° ESE 23:05:26 10° NE
CZ-3 R/B 4.4 22:13:49 10° WNW 22:59:18 44° SW 23:11:23 10° SSE
Cosmos 1441 Rocket 4.1 22:57:09 10° N 23:00:58 51° E 23:04:46 10° SSE
DELTA 2 DEB (DPAF) 4.1 22:59:46 10° S 23:04:06 61° W 23:08:27 10° NNW
Cosmos 921 Rocket 3.8 23:02:24 23° WSW 23:04:23 34° WNW 23:08:28 10° N
GPS 2-18 Rocket1 4.4 23:02:49 19° SSW 23:04:29 27° SSE 23:07:42 10° E
Cosmos 2034 Rocket 4.2 23:00:15 10° N 23:06:25 73° E 23:12:31 10° S
CZ-2C R/B 4.2 23:05:59 10° NW 23:07:31 12° WNW 23:08:00 11° WNW
CZ-2C R/B 3.4 23:03:44 10° SSE 23:09:01 57° ENE 23:14:26 10° N
Cosmos 389 Rocket 2.3 23:07:38 11° S 23:10:52 76° W 23:14:22 10° N
Cosmos 1980 3.9 23:05:33 10° NNW 23:10:58 48° WSW 23:16:23 10° S
GPS 2-15 Rocket1 3.4 23:08:50 19° WSW 23:12:04 56° SSE 23:16:41 10° E
Cosmos 773 Rocket 4.3 23:10:44 14° SSW 23:15:07 49° WNW 23:20:09 10° N
Cosmos 1356 3.3 23:12:07 10° N 23:15:22 84° E 23:18:37 10° S
SL-08 R/B 3.3 23:10:43 10° S 23:15:29 78° WSW 23:20:21 10° NNW
Cosmos 2227 4.2 23:10:01 10° SSW 23:15:42 81° WNW 23:21:25 10° NNE
SWIFT 2.2 23:12:08 11° WNW 23:16:06 88° NNE 23:20:16 10° ESE
Meteor 1-11 Rocket 4.0 23:12:23 10° S 23:18:18 81° E 23:24:16 10° N
H-2A R/B 2.7 23:18:19 10° N 23:22:00 61° WNW 23:25:42 10° SSW
Cosmos 1378 3.5 23:18:52 10° NNW 23:22:19 39° W 23:25:46 10° SSW
SL-16 R/B 3.3 23:19:04 10° N 23:24:34 50° ENE 23:30:02 10° SSE
Cosmos 1464 Rocket 4.3 23:18:33 10° NNW 23:24:34 47° W 23:30:37 10° SSW
Cosmos 1743 2.7 23:22:04 10° S 23:25:49 81° E 23:29:34 10° N
USA 276 2.2 23:24:39 10° NW 23:27:37 73° NE 23:30:35 10° SE
Mugunghwa Rocket 4.5 23:20:01 10° WNW 23:28:22 83° SSW 23:35:50 10° ESE
Cosmos 1633 Rocket 3.7 23:24:25 10° SSW 23:28:25 35° W 23:32:24 10° NNW
Cosmos 1536 2.8 23:25:46 10° S 23:29:45 77° W 23:33:47 10° N
ATLAS CENTAUR R/B 2.3 23:26:10 12° SW 23:29:54 36° WNW 23:34:13 10° N
Meteor 2-4 Rocket 3.8 23:25:10 10° NNW 23:30:42 60° W 23:36:24 10° S
Milstar 3 Cent rocket 2.7 23:30:15 10° SW 23:35:06 66° SSE 23:43:12 10° ENE
SJ-12 3.9 23:31:20 10° N 23:35:26 71° WNW 23:39:31 10° SSW
COSMOS 2455 3.0 23:29:56 10° NNW 23:35:43 52° WSW 23:41:30 10° S
Cosmos 2263 Rocket 3.3 23:33:30 10° SW 23:38:05 26° WNW 23:42:39 10° NNW
Cosmos 1862 Rocket 3.8 23:37:13 10° N 23:41:30 76° E 23:45:49 10° S
YAOGAN 6 4.4 23:41:06 10° NW 23:43:06 14° WNW 23:45:05 10° WSW
Cosmos 1346 Rocket 4.4 23:41:14 10° NW 23:43:36 16° W 23:45:59 10° SW
Cosmos 2298 Rocket 4.2 23:39:30 10° NNW 23:44:40 53° WSW 23:49:49 10° S
Delta 2 Rocket 4.3 23:41:58 10° WNW 23:46:28 41° SW 23:51:25 10° SSE
